sat.trackr.live / text

‹ back to catalog

STARLINK-37184

NORAD 68393 · 2026-063P

PAYLOAD ACTIVE UNKNOWN

§ Identity

Operator
Country
US
Launch date
2026-03-26
Launch site
AFWTR
Launch vehicle
Mass (kg)
RCS (m²)

Purposes: comms

External: N2YO · Heavens-Above · Gunter

§ Orbital elements

Epoch: 2026-09-19T08:19:19.195680Z

Period
93.91 min
Inclination
97.2854°
Eccentricity
0.0000400
Mean motion
15.33445841 rev/d
Perigee alt
465.3 km
Apogee alt
465.8 km
Semi-major
6,843.7 km
B*
4.7228e-4
RAAN
43.2509°
Arg perigee
63.6421°
Mean anomaly
296.4863°
Rev number
2,757

§ Raw data

STARLINK-371841 68393U 26063P   26262.34674995  .00015203  00000+0  47228-3 0  99972 68393  97.2854  43.2509 0000400  63.6421 296.4863 15.33445841 27572

JSON: /api/v1/satellites/68393 · /tle

For live sub-satellite position, see the globe view (requires WebGL).

§ Visibility from observer

Set your observer location to see the next 7 days of passes ≥ 10°. The values pass through the URL so the page stays shareable.

No JS? Fill the form by hand. The geolocation button needs JavaScript.